Location: Chippewa Lake
(41.0698°N, 81.9010°W)
Time: 20:28:57
(UTC+00:00)

Cosmos 2251 Rocket - Pass Details

Date: 09 May 2021
Orbit: 765 x 791 km, 74.0° (Epoch: 17 June)

Event Time Altitude Azimuth Distance (km) Brightness Sun altitude
Rises 08:33:42 0° 333° (NNW) 3,243 7.0 -16.8°
Reaches altitude 10° 08:36:11 10° 326° (NW) 2,310 6.1 -16.5°
Maximum altitude 08:41:03 40° 258° (WSW) 1,111 3.9 -15.8°
Enters shadow 08:44:18 19° 198° (SSW) 1,744 4.9 -15.3°
